When you browse on this site, cookies collect data to enhance your experience and personalize the content and advertising you see.
Visit our Privacy Policy to learn more. By continuing to use the site, you agree to this use of cookies and data.
  • In Hungary
  • List of Countries
  • For 7 days
  • Water Temperature
  • Satellite Maps
  • Weather Map
  • News
  • Weather Widgets
  • user-avatar
    Login

    Hourly Weather Peredivannya

    Today, 13 December, Thursday

    Time Temperature Precipitation Wind Pressure Humidity
    00:00 -4°C° 0.1 mm 6 mps 737 mmHg 100%
    01:00 -4°C° 0 mm 6 mps 737 mmHg 99%
    02:00 -4°C° 0 mm 5 mps 737 mmHg 94%
    03:00 -4°C° 0.1 mm 6 mps 737 mmHg 100%
    04:00 -4°C° 0.2 mm 6 mps 737 mmHg 100%
    05:00 -4°C° 0.2 mm 6 mps 737 mmHg 100%
    06:00 -4°C° 0.2 mm 6 mps 737 mmHg 100%
    07:00 -4°C° 0.3 mm 6 mps 737 mmHg 100%
    08:00 -4°C° 0.3 mm 6 mps 737 mmHg 100%
    09:00 -4°C° 0.2 mm 5 mps 737 mmHg 100%
    10:00 -4°C° 0.1 mm 5 mps 737 mmHg 100%
    11:00 -2°C° 0.1 mm 5 mps 737 mmHg 100%
    12:00 -2°C° 0.1 mm 5 mps 737 mmHg 100%
    13:00 -2°C° 0.2 mm 5 mps 737 mmHg 100%
    14:00 -2°C° 0.4 mm 5 mps 737 mmHg 100%
    15:00 -2°C° 0.3 mm 5 mps 737 mmHg 100%
    16:00 -4°C° 0.3 mm 5 mps 737 mmHg 100%
    17:00 -4°C° 0.4 mm 5 mps 737 mmHg 100%
    18:00 -4°C° 0.4 mm 5 mps 738 mmHg 100%
    19:00 -4°C° 0.1 mm 5 mps 738 mmHg 100%
    20:00 -5°C° 0.1 mm 5 mps 738 mmHg 100%
    21:00 -4°C° 0 mm 4 mps 738 mmHg 100%
    22:00 -4°C° 0 mm 4 mps 738 mmHg 100%
    23:00 -4°C° 0 mm 4 mps 738 mmHg 100%

    Tomorrow, 14 December, Friday

    Time Temperature Precipitation Wind Pressure Humidity
    00:00 -4°C° 0.1 mm 4 mps 738 mmHg 100%
    01:00 -4°C° 0.1 mm 4 mps 739 mmHg 100%
    02:00 -4°C° 0.1 mm 4 mps 739 mmHg 100%
    03:00 -5°C° 0 mm 4 mps 739 mmHg 100%
    04:00 -5°C° 0.1 mm 4 mps 739 mmHg 100%
    05:00 -5°C° 0.1 mm 4 mps 739 mmHg 100%
    06:00 -5°C° 0.1 mm 4 mps 740 mmHg 100%
    07:00 -5°C° 0 mm 4 mps 740 mmHg 100%
    08:00 -5°C° 0 mm 4 mps 740 mmHg 100%
    09:00 -7°C° 0 mm 4 mps 740 mmHg 100%
    10:00 -5°C° 0 mm 3 mps 741 mmHg 100%
    11:00 -5°C° 0 mm 3 mps 741 mmHg 98%
    12:00 -4°C° 0 mm 3 mps 742 mmHg 98%
    13:00 -4°C° 0 mm 3 mps 742 mmHg 98%
    14:00 -4°C° 0 mm 3 mps 742 mmHg 98%
    15:00 -3°C° 0 mm 2 mps 742 mmHg 99%
    16:00 -5°C° 0 mm 2 mps 742 mmHg 100%
    17:00 -6°C° 0 mm 2 mps 742 mmHg 100%
    18:00 -7°C° 0 mm 2 mps 742 mmHg 100%
    19:00 -9°C° 0 mm 2 mps 742 mmHg 100%
    20:00 -9°C° 0 mm 2 mps 743 mmHg 100%
    21:00 -10°C° 0 mm 2 mps 743 mmHg 100%
    22:00 -10°C° 0 mm 2 mps 743 mmHg 100%
    23:00 -12°C° 0 mm 2 mps 743 mmHg 100%

    Day after tomorrow, 15 December, Saturday

    Time Temperature Precipitation Wind Pressure Humidity
    00:00 -10°C° 0.1 mm 1 mps 743 mmHg 100%
    01:00 -11°C° 0 mm 1 mps 743 mmHg 100%
    02:00 -13°C° 0 mm 2 mps 743 mmHg 100%
    03:00 -14°C° 0 mm 2 mps 743 mmHg 100%
    04:00 -15°C° 0 mm 2 mps 743 mmHg 100%
    05:00 -15°C° 0 mm 2 mps 743 mmHg 100%
    06:00 -13°C° 0 mm 1 mps 743 mmHg 100%
    07:00 -16°C° 0 mm 2 mps 743 mmHg 100%
    08:00 -16°C° 0 mm 2 mps 743 mmHg 100%
    09:00 -16°C° 0 mm 2 mps 743 mmHg 100%
    10:00 -15°C° 0 mm 2 mps 743 mmHg 100%
    11:00 -12°C° 0 mm 1 mps 743 mmHg 99%
    12:00 -12°C° 0 mm 2 mps 743 mmHg 99%
    13:00 -10°C° 0 mm 2 mps 743 mmHg 99%
    14:00 -12°C° 0 mm 3 mps 743 mmHg 99%
    15:00 -12°C° 0.2 mm 3 mps 743 mmHg 100%
    16:00 -10°C° 0.6 mm 2 mps 742 mmHg 100%
    17:00 -9°C° 0.9 mm 1 mps 742 mmHg 100%
    18:00 -9°C° 1.1 mm 1 mps 742 mmHg 100%
    19:00 -8°C° 1 mm 1 mps 742 mmHg 100%
    20:00 -8°C° 1 mm 1 mps 742 mmHg 100%
    21:00 -9°C° 1.1 mm 2 mps 741 mmHg 100%
    22:00 -9°C° 0.9 mm 2 mps 741 mmHg 100%
    23:00 -9°C° 1 mm 2 mps 740 mmHg 100%

    16 December, Sunday

    Time Temperature Precipitation Wind Pressure Humidity
    00:00 -7°C° 1.3 mm 1 mps 740 mmHg 100%
    01:00 -8°C° 1 mm 2 mps 739 mmHg 100%
    02:00 -8°C° 0.5 mm 2 mps 739 mmHg 100%
    03:00 -8°C° 0.3 mm 2 mps 738 mmHg 100%
    04:00 -9°C° 0.5 mm 2 mps 737 mmHg 100%
    05:00 -8°C° 0.8 mm 1 mps 737 mmHg 100%
    06:00 -8°C° 1.1 mm 1 mps 736 mmHg 100%
    07:00 -8°C° 0.8 mm 1 mps 736 mmHg 100%
    08:00 -8°C° 0.2 mm 1 mps 736 mmHg 100%
    09:00 -8°C° 0 mm 1 mps 736 mmHg 100%
    10:00 -8°C° 0 mm 1 mps 737 mmHg 100%
    11:00 -7°C° 0 mm 1 mps 737 mmHg 99%
    12:00 -6°C° 0 mm 1 mps 737 mmHg 99%
    13:00 -4°C° 0 mm 1 mps 737 mmHg 98%
    14:00 -4°C° 0 mm 1 mps 737 mmHg 98%
    15:00 -3°C° 0 mm 1 mps 737 mmHg 99%
    16:00 -3°C° 0 mm 1 mps 737 mmHg 100%
    17:00 -3°C° 1.1 mm 1 mps 738 mmHg 100%
    18:00 -3°C° 2.1 mm 1 mps 738 mmHg 100%
    19:00 -3°C° 0.8 mm 1 mps 738 mmHg 100%
    20:00 -3°C° 1.2 mm 1 mps 738 mmHg 100%
    21:00 -3°C° 1.1 mm 1 mps 739 mmHg 100%
    22:00 -5°C° 0.6 mm 2 mps 739 mmHg 100%
    23:00 -3°C° 1.7 mm 1 mps 739 mmHg 100%

    17 December, Monday

    Time Temperature Precipitation Wind Pressure Humidity
    00:00 -5°C° 2.3 mm 2 mps 739 mmHg 100%
    01:00 -5°C° 2.3 mm 2 mps 739 mmHg 100%
    02:00 -4°C° 1.4 mm 1 mps 740 mmHg 100%

    18 December, Tuesday

    Time Temperature Precipitation Wind Pressure Humidity
    Show more